GW7166 Weather Reports


Display with metric or nautical units.
time (UTC)temp
F
wind
direction
speed
MPH
gust
MPH
rain 1hr
in
rain 24hr
in
rain mn
in
humidity
%
barometer
mb
20260509201212 53 179 2.0 3.0 0.00 0.25 0.25 89 1010.3
20260509200708 53 257 0.0 4.0 0.00 0.25 0.25 85 1010.0
20260509200203 53 146 2.0 2.0 0.00 0.25 0.25 88 1010.0
20260509195659 53 185 3.0 4.0 0.00 0.25 0.25 89 1010.1
20260509195155 53 137 3.0 4.0 0.00 0.25 0.25 91 1010.2
20260509194654 53 148 2.0 4.0 0.00 0.25 0.25 90 1010.2
20260509194152 53 185 3.0 5.0 0.00 0.25 0.25 90 1010.4
20260509193648 53 136 3.0 5.0 0.00 0.25 0.25 91 1010.3
20260509193143 53 156 2.0 5.0 0.00 0.25 0.25 89 1010.4
20260509192640 53 185 3.0 7.0 0.00 0.25 0.25 89 1010.5
20260509192135 53 129 2.0 6.0 0.00 0.25 0.25 90 1010.4
20260509191635 53 155 3.0 6.0 0.00 0.25 0.25 89 1010.4
20260509191132 53 148 6.0 6.0 0.02 0.25 0.25 91 1010.5
20260509190629 53 144 4.0 4.0 0.05 0.25 0.25 92 1010.5
20260509190126 53 150 3.0 5.0 0.02 0.25 0.25 91 1010.5
20260509185624 53 190 4.0 6.0 0.02 0.24 0.24 91 1010.5
20260509185119 53 144 6.0 8.0 0.02 0.24 0.24 89 1010.6
20260509184618 53 177 3.0 8.0 0.00 0.24 0.24 89 1010.8
20260509184114 53 152 4.0 7.0 0.00 0.24 0.24 90 1010.8
20260509183610 53 210 5.0 9.0 0.00 0.24 0.24 87 1010.8
20260509183106 53 139 6.0 6.0 0.00 0.24 0.24 88 1011.0
20260509182602 53 152 1.0 5.0 0.00 0.24 0.24 90 1010.9
20260509182059 53 98 0.0 6.0 0.00 0.24 0.24 90 1010.8
20260509181558 53 26 2.0 7.0 0.00 0.24 0.24 91 1010.6
20260509181054 53 175 2.0 6.0 0.02 0.24 0.24 89 1010.5
20260509180550 53 148 5.0 6.0 0.02 0.24 0.24 89 1010.4
20260509180048 53 206 4.0 6.0 0.00 0.24 0.24 89 1010.6
20260509175543 53 189 4.0 5.0 0.00 0.24 0.24 90 1010.7
20260509175040 53 109 4.0 15.0 0.00 0.24 0.24 89 1010.7
20260509174537 53 137 5.0 6.0 0.00 0.24 0.24 90 1010.5
20260509174032 52 159 3.0 4.0 0.00 0.24 0.24 91 1010.7
20260509173526 52 158 2.0 5.0 0.00 0.24 0.24 91 1010.6
20260509173023 52 146 6.0 6.0 0.02 0.24 0.24 92 1010.7
20260509172520 52 180 3.0 7.0 0.05 0.24 0.24 92 1010.5
20260509172015 52 160 3.0 7.0 0.02 0.23 0.23 91 1010.6
20260509171512 52 189 3.0 6.0 0.00 0.23 0.23 93 1010.8
20260509171009 52 174 2.0 4.0 0.00 0.23 0.23 94 1010.6
20260509170504 52 152 2.0 3.0 0.02 0.23 0.23 93 1010.5
20260509170000 52 146 3.0 4.0 0.02 0.23 0.23 92 1010.7
20260509165458 52 184 3.0 4.0 0.00 0.22 0.22 93 1010.7
20260509164955 52 188 4.0 5.0 0.00 0.22 0.22 93 1010.7
20260509164451 52 147 2.0 4.0 0.00 0.22 0.22 94 1010.8
20260509163947 52 170 2.0 3.0 0.00 0.22 0.22 94 1010.6
20260509163445 52 168 2.0 4.0 0.02 0.22 0.22 94 1010.8
20260509162943 52 149 4.0 4.0 0.02 0.22 0.22 95 1011.0
20260509162443 51 191 4.0 4.0 0.02 0.22 0.22 95 1010.8
20260509161938 51 174 3.0 3.0 0.02 0.22 0.22 95 1010.9
20260509161434 51 144 2.0 3.0 0.02 0.22 0.22 95 1010.8
20260509160930 51 153 2.0 4.0 0.05 0.22 0.22 95 1010.9
20260509160426 51 189 4.0 4.0 0.02 0.21 0.21 94 1011.0
20260509155921 51 183 3.0 6.0 0.00 0.21 0.21 95 1010.9
20260509155418 51 176 2.0 4.0 0.02 0.21 0.21 95 1011.0
20260509154914 51 156 2.0 5.0 0.02 0.21 0.21 95 1011.1
20260509154411 51 133 5.0 6.0 0.02 0.20 0.20 95 1011.2
20260509153907 51 146 4.0 6.0 0.02 0.20 0.20 95 1011.2
20260509153405 51 139 2.0 3.0 0.00 0.20 0.20 95 1011.5
20260509152902 51 136 2.0 2.0 0.02 0.20 0.20 95 1011.3
20260509152358 51 131 4.0 5.0 0.02 0.20 0.20 95 1011.5
20260509151855 51 122 4.0 4.0 0.02 0.20 0.20 95 1011.6
20260509151351 51 127 1.0 2.0 0.00 0.19 0.19 95 1011.5
20260509150849 50 84 1.0 2.0 0.05 0.19 0.19 95 1011.6
20260509150347 50 128 3.0 3.0 0.05 0.19 0.19 95 1011.6
20260509145844 50 137 3.0 3.0 0.05 0.18 0.18 95 1011.6
20260509145344 50 162 2.0 3.0 0.02 0.18 0.18 96 1011.7
20260509144841 50 126 4.0 5.0 0.02 0.18 0.18 96 1012.0
20260509144338 50 120 4.0 4.0 0.02 0.18 0.18 96 1011.7
20260509143835 50 93 3.0 4.0 0.02 0.17 0.17 96 1011.7
20260509143333 50 137 3.0 4.0 0.00 0.17 0.17 96 1011.6
20260509142828 50 124 3.0 3.0 0.02 0.17 0.17 96 1012.1
20260509142325 50 127 2.0 3.0 0.00 0.17 0.17 96 1012.0
20260509141820 50 150 2.0 3.0 0.02 0.17 0.17 96 1012.0
20260509141318 50 131 3.0 4.0 0.02 0.17 0.17 96 1011.7
20260509140814 49 131 2.0 3.0 0.02 0.16 0.16 96 1011.8
20260509140311 49 132 2.0 2.0 0.02 0.16 0.16 96 1011.6
20260509135809 49 121 2.0 2.0 0.00 0.16 0.16 96 1011.7
20260509135306 49 143 3.0 3.0 0.02 0.16 0.16 96 1011.7
20260509134804 49 155 2.0 3.0 0.02 0.16 0.16 96 1011.7
20260509134301 49 144 3.0 3.0 0.00 0.15 0.15 96 1011.6
20260509133758 49 137 2.0 2.0 0.02 0.15 0.15 96 1011.7
20260509133254 49 134 2.0 3.0 0.02 0.15 0.15 96 1011.7
20260509132753 49 136 2.0 3.0 0.00 0.15 0.15 95 1011.5
20260509132251 49 138 2.0 3.0 0.02 0.15 0.15 95 1011.6
20260509131748 49 113 3.0 3.0 0.02 0.15 0.15 96 1011.7
20260509131244 49 113 3.0 3.0 0.00 0.15 0.15 96 1011.3
20260509130740 49 113 3.0 3.0 0.00 0.15 0.15 96 1011.5
20260509130236 49 94 2.0 2.0 0.02 0.15 0.15 96 1011.4
20260509125733 49 94 2.0 2.0 0.02 0.15 0.15 96 1011.5
20260509125230 49 94 2.0 2.0 0.02 0.14 0.14 96 1011.5
20260509124726 49 130 2.0 4.0 0.02 0.14 0.14 96 1011.6
20260509124223 49 109 1.0 2.0 0.02 0.14 0.14 95 1011.5
20260509123721 48 112 1.0 3.0 0.02 0.14 0.14 95 1011.6
20260509123218 48 125 2.0 2.0 0.02 0.13 0.13 96 1011.5
20260509122714 48 161 0.0 2.0 0.00 0.13 0.13 96 1011.6
20260509122211 48 119 3.0 3.0 0.02 0.13 0.13 96 1011.8
20260509121707 48 151 1.0 2.0 0.02 0.13 0.13 96 1011.7
20260509121205 48 115 5.0 5.0 0.02 0.13 0.13 96 1011.8
20260509120703 48 109 2.0 3.0 0.02 0.13 0.13 96 1011.8
20260509120201 48 131 2.0 4.0 0.00 0.12 0.12 96 1011.8
20260509115658 48 126 2.0 3.0 0.00 0.12 0.12 96 1011.7
20260509115155 48 111 3.0 3.0 0.00 0.12 0.12 96 1011.7
20260509114654 48 107 2.0 3.0 0.00 0.12 0.12 96 1011.8
20260509114152 48 110 3.0 4.0 0.00 0.12 0.12 96 1012.1
20260509113650 48 145 4.0 4.0 0.00 0.12 0.12 96 1011.6
20260509113147 48 150 2.0 3.0 0.00 0.12 0.12 96 1011.7
20260509112643 48 118 4.0 4.0 0.00 0.12 0.12 96 1011.7
20260509112141 48 125 2.0 2.0 0.00 0.12 0.12 96 1011.8
20260509111638 48 113 2.0 4.0 0.00 0.12 0.12 97 1012.1
20260509111134 48 115 2.0 2.0 0.00 0.12 0.12 97 1012.1
20260509110632 48 107 2.0 2.0 0.00 0.12 0.12 97 1012.2
20260509110129 48 114 2.0 3.0 0.00 0.12 0.12 97 1012.1
20260509105627 47 126 2.0 3.0 0.00 0.12 0.12 97 1011.8
20260509105124 47 129 3.0 3.0 0.00 0.12 0.12 97 1012.2
20260509104621 47 121 1.0 2.0 0.00 0.12 0.12 97 1012.0
20260509104118 47 96 2.0 3.0 0.00 0.12 0.12 97 1012.3
20260509103616 47 110 3.0 4.0 0.00 0.12 0.12 97 1012.0
20260509103114 47 118 3.0 4.0 0.00 0.12 0.12 97 1011.8
20260509102610 47 118 3.0 3.0 0.00 0.12 0.12 97 1012.1
20260509102107 47 107 0.0 2.0 0.00 0.12 0.12 97 1012.0
20260509101604 47 126 2.0 3.0 0.00 0.12 0.12 97 1011.8
20260509101101 47 89 1.0 1.0 0.00 0.12 0.12 97 1011.6
20260509100558 47 104 2.0 2.0 0.02 0.12 0.12 97 1011.6
20260509100055 47 120 4.0 4.0 0.02 0.12 0.12 97 1012.0
20260509095551 47 128 2.0 2.0 0.00 0.12 0.12 97 1012.2
20260509095049 47 121 0.0 2.0 0.02 0.12 0.12 97 1012.2
20260509094545 47 122 0.0 2.0 0.00 0.11 0.11 97 1012.2
20260509094043 47 130 1.0 2.0 0.02 0.11 0.11 97 1012.3
20260509093541 47 131 1.0 2.0 0.00 0.11 0.11 97 1012.0
20260509093038 47 122 2.0 2.0 0.02 0.11 0.11 97 1012.3
20260509092536 47 125 0.0 2.0 0.02 0.11 0.11 97 1012.1
20260509092034 47 129 2.0 3.0 0.00 0.11 0.11 97 1012.2
20260509091531 47 137 2.0 3.0 0.00 0.11 0.11 97 1012.2
20260509091028 47 54 0.0 1.0 0.00 0.11 0.11 96 1012.1
20260509090525 47 64 0.0 2.0 0.00 0.11 0.11 96 1012.4
20260509090023 47 61 0.0 2.0 0.00 0.11 0.11 96 1012.3
20260509085520 47 127 0.0 0.0 0.00 0.11 0.11 96 1012.4
20260509085015 47 47 0.0 4.0 0.00 0.11 0.11 96 1012.3
20260509084513 46 88 0.0 2.0 0.00 0.11 0.11 96 1012.2
20260509084010 46 94 2.0 2.0 0.00 0.11 0.11 96 1012.1
20260509083507 46 130 3.0 4.0 0.02 0.11 0.11 96 1012.3
20260509083004 46 82 2.0 3.0 0.05 0.11 0.11 96 1012.5
20260509082501 46 130 4.0 4.0 0.02 0.10 0.10 96 1012.6
20260509081958 47 133 3.0 3.0 0.00 0.10 0.10 96 1012.4
20260509081455 47 156 2.0 3.0 0.00 0.10 0.10 96 1012.7
20260509080952 47 163 2.0 2.0 0.02 0.10 0.10 96 1012.4
20260509080450 47 133 2.0 2.0 0.02 0.10 0.10 96 1012.4
20260509075948 47 106 2.0 2.0 0.00 0.09 0.09 96 1012.3
20260509075445 47 118 1.0 1.0 0.02 0.09 0.09 96 1012.5
20260509074943 47 110 1.0 2.0 0.02 0.09 0.09 96 1012.6
20260509074440 47 113 0.0 0.0 0.02 0.09 0.09 95 1012.6
20260509073936 47 66 0.0 1.0 0.02 0.09 0.09 95 1012.6
20260509073433 47 113 0.0 1.0 0.02 0.09 0.09 95 1012.7
20260509072929 47 103 0.0 1.0 0.02 0.09 0.09 95 1012.8
20260509072426 47 112 1.0 2.0 0.02 0.08 0.08 95 1012.8
20260509071922 47 112 1.0 2.0 0.05 0.08 0.08 95 1013.0
20260509071420 47 115 2.0 2.0 0.07 0.08 0.08 95 1012.8
20260509070917 47 125 0.0 1.0 0.05 0.07 0.07 95 1013.0
20260509070414 47 38 0.0 1.0 0.07 0.07 0.07 95 1013.0
20260509065909 47 103 0.0 0.0 0.07 0.06 0.06 95 1012.9
20260509065406 47 89 0.0 1.0 0.07 0.06 0.06 95 1012.9
20260509064902 47 108 0.0 1.0 0.07 0.05 0.05 95 1012.8
20260509064400 46 96 0.0 1.0 0.07 0.04 0.04 95 1013.0
20260509063857 46 49 0.0 0.0 0.02 0.04 0.04 95 1013.0
20260509063353 46 135 1.0 2.0 0.02 0.03 0.03 95 1013.3
20260509062850 46 112 2.0 3.0 0.05 0.03 0.03 95 1013.3
20260509062347 46 109 1.0 2.0 0.02 0.03 0.03 94 1013.4
20260509061844 46 144 2.0 2.0 0.02 0.02 0.02 94 1013.4
20260509061343 46 134 2.0 3.0 0.05 0.02 0.02 94 1013.4
20260509060839 46 54 1.0 2.0 0.05 0.02 0.02 94 1013.4
20260509060336 46 44 2.0 3.0 0.05 0.02 0.02 94 1013.3
20260509055831 46 80 0.0 1.0 0.02 0.01 0.01 94 1013.6
20260509055327 46 175 2.0 2.0 0.00 0.01 0.01 93 1013.8
20260509054825 46 150 2.0 3.0 0.00 0.01 0.01 93 1013.4
20260509054321 47 142 3.0 3.0 0.00 0.01 0.01 93 1013.3
20260509053820 47 151 2.0 3.0 0.00 0.01 0.01 92 1013.1
20260509053316 47 191 1.0 2.0 0.00 0.01 0.01 91 1012.9
20260509052814 47 89 1.0 2.0 0.02 0.01 0.01 91 1012.9
20260509052312 47 76 2.0 2.0 0.02 0.01 0.01 91 1012.9
20260509051809 47 47 2.0 2.0 0.00 0.00 0.00 92 1012.7
20260509051307 47 41 1.0 2.0 0.00 0.00 0.00 92 1013.0
20260509050803 47 63 1.0 1.0 0.00 0.00 0.00 92 1012.7
20260509050300 47 64 0.0 1.0 0.02 0.00 0.00 92 1012.8
20260509045757 47 86 1.0 2.0 0.02 0.00 0.00 91 1013.0
20260509045254 47 134 0.0 2.0 0.00 0.00 0.00 91 1013.1
20260509044751 47 170 2.0 2.0 0.00 0.00 0.00 91 1012.9
20260509044249 47 135 2.0 2.0 0.00 0.00 0.00 90 1013.0
20260509043745 48 118 4.0 4.0 0.00 0.00 0.00 89 1012.7
20260509043241 48 134 1.0 3.0 0.00 0.00 0.00 88 1012.9
20260509042737 48 164 2.0 2.0 0.00 0.00 0.00 88 1012.9
20260509042234 48 76 0.0 0.0 0.00 0.00 0.00 87 1013.1
20260509041730 48 84 0.0 2.0 0.00 0.00 0.00 87 1012.8
20260509041228 47 159 2.0 2.0 0.00 0.00 0.00 89 1013.2
20260509040726 47 73 0.0 2.0 0.00 0.00 0.00 89 1013.1
20260509040223 47 102 0.0 1.0 0.00 0.00 0.00 89 1013.3
20260509035719 47 164 0.0 2.0 0.00 0.20 0.20 90 1013.3
20260509035216 47 156 0.0 1.0 0.00 0.20 0.20 90 1013.3
20260509034713 47 135 0.0 2.0 0.00 0.20 0.20 90 1013.4
20260509034211 47 44 0.0 2.0 0.00 0.20 0.20 91 1013.3
20260509033708 47 81 0.0 2.0 0.00 0.20 0.20 90 1013.2
20260509033205 47 131 2.0 2.0 0.00 0.20 0.20 90 1013.4
20260509032702 47 185 0.0 2.0 0.00 0.20 0.20 90 1013.3
20260509032159 47 208 0.0 2.0 0.00 0.20 0.20 90 1013.2
20260509031656 46 269 0.0 2.0 0.00 0.20 0.20 90 1013.1
20260509031153 46 98 2.0 2.0 0.00 0.20 0.20 89 1013.3
20260509030652 46 157 0.0 2.0 0.00 0.20 0.20 89 1013.2
20260509030149 46 124 0.0 0.0 0.00 0.20 0.20 89 1013.3
20260509025645 47 99 0.0 0.0 0.00 0.20 0.20 89 1013.3
20260509025141 47 132 2.0 2.0 0.00 0.20 0.20 88 1013.4
20260509024636 47 166 1.0 3.0 0.00 0.20 0.20 88 1013.4
20260509024132 47 38 0.0 1.0 0.00 0.20 0.20 88 1013.3
20260509023630 47 84 1.0 1.0 0.00 0.20 0.20 86 1013.2
20260509023127 47 55 0.0 1.0 0.00 0.20 0.20 87 1013.2
20260509022623 48 81 0.0 2.0 0.00 0.20 0.20 85 1013.0
20260509022121 48 147 0.0 0.0 0.00 0.20 0.20 84 1013.4
20260509021618 48 166 0.0 1.0 0.00 0.20 0.20 84 1013.2
20260509021115 48 160 0.0 2.0 0.00 0.20 0.20 82 1013.2
20260509020613 49 147 0.0 2.0 0.00 0.20 0.20 82 1013.4
20260509020110 48 68 0.0 2.0 0.00 0.20 0.20 81 1013.2
20260509015609 49 102 0.0 1.0 0.00 0.20 0.20 81 1013.2
20260509015106 49 120 1.0 2.0 0.00 0.20 0.20 82 1013.0
20260509014602 49 127 1.0 1.0 0.00 0.20 0.20 82 1013.0
20260509014059 49 127 2.0 2.0 0.00 0.20 0.20 81 1013.1
20260509013556 50 140 2.0 2.0 0.00 0.20 0.20 79 1013.2
20260509013051 50 143 2.0 2.0 0.00 0.20 0.20 79 1013.2
20260509012548 50 131 2.0 2.0 0.00 0.20 0.20 79 1013.0
20260509012045 50 138 1.0 2.0 0.00 0.20 0.20 79 1013.2
20260509011543 50 145 2.0 2.0 0.00 0.20 0.20 78 1013.0
20260509011040 50 133 2.0 2.0 0.00 0.20 0.20 77 1013.0
20260509010538 50 136 2.0 2.0 0.00 0.20 0.20 77 1012.9
20260509010034 50 123 1.0 2.0 0.00 0.20 0.20 76 1012.9
20260509005532 50 140 1.0 2.0 0.00 0.20 0.20 76 1012.8
20260509005027 50 44 0.0 1.0 0.00 0.20 0.20 77 1012.9
20260509004524 50 113 0.0 1.0 0.00 0.20 0.20 76 1012.6
20260509004021 50 69 1.0 1.0 0.00 0.20 0.20 76 1012.5
20260509003519 50 71 1.0 2.0 0.00 0.20 0.20 78 1012.4
20260509003016 49 112 3.0 3.0 0.00 0.20 0.20 80 1012.3
20260509002513 50 44 0.0 2.0 0.00 0.20 0.20 81 1012.4
20260509002010 50 99 2.0 2.0 0.00 0.20 0.20 78 1012.4
20260509001508 50 136 2.0 4.0 0.00 0.20 0.20 75 1012.2
20260509001004 50 142 3.0 4.0 0.00 0.20 0.20 76 1012.4
20260509000502 50 144 3.0 4.0 0.00 0.20 0.20 77 1012.4
20260508235957 50 152 2.0 2.0 0.00 0.20 0.20 78 1012.5
20260508235456 50 134 3.0 3.0 0.00 0.20 0.20 80 1012.5
20260508234952 50 124 2.0 3.0 0.00 0.20 0.20 78 1012.5
20260508234449 50 134 2.0 3.0 0.00 0.20 0.20 79 1012.4
20260508233946 50 132 2.0 2.0 0.00 0.20 0.20 77 1012.3
20260508233446 51 116 2.0 3.0 0.00 0.20 0.20 75 1012.1
20260508232942 51 154 2.0 2.0 0.00 0.20 0.20 74 1012.3
20260508232439 51 174 2.0 2.0 0.00 0.20 0.20 75 1012.1
20260508231936 51 159 2.0 2.0 0.00 0.20 0.20 75 1012.0
20260508231434 51 149 2.0 2.0 0.00 0.20 0.20 73 1011.8
20260508230930 52 141 2.0 2.0 0.00 0.20 0.20 74 1011.7
20260508230427 52 166 2.0 3.0 0.00 0.20 0.20 72 1011.7
20260508225924 53 142 2.0 3.0 0.00 0.20 0.20 72 1012.0
20260508225421 53 176 2.0 4.0 0.00 0.20 0.20 71 1012.1
20260508224918 53 133 2.0 3.0 0.00 0.20 0.20 72 1012.3
20260508224416 53 157 2.0 3.0 0.00 0.20 0.20 70 1012.2
20260508223913 53 153 2.0 3.0 0.00 0.20 0.20 69 1012.0
20260508223411 53 137 2.0 3.0 0.00 0.20 0.20 72 1012.0
20260508222908 53 128 4.0 4.0 0.00 0.20 0.20 69 1012.0
20260508222405 53 139 2.0 4.0 0.00 0.20 0.20 70 1012.1
20260508221901 53 127 2.0 2.0 0.00 0.20 0.20 69 1012.0
20260508221357 53 176 2.0 2.0 0.00 0.20 0.20 69 1012.0
20260508220854 53 105 3.0 4.0 0.00 0.20 0.20 72 1012.1
20260508220350 53 131 3.0 4.0 0.00 0.20 0.20 69 1012.4
20260508215846 53 146 2.0 4.0 0.00 0.20 0.20 69 1012.1
20260508215344 53 121 3.0 5.0 0.00 0.20 0.20 73 1012.1
20260508214840 53 129 4.0 4.0 0.00 0.20 0.20 74 1012.3
20260508214338 53 136 3.0 5.0 0.00 0.20 0.20 75 1012.0
20260508213834 53 143 3.0 4.0 0.00 0.20 0.20 72 1012.1
20260508213332 53 133 4.0 4.0 0.00 0.20 0.20 71 1012.1
20260508212827 53 173 2.0 4.0 0.00 0.20 0.20 70 1012.1
20260508212323 53 143 4.0 6.0 0.00 0.20 0.20 71 1012.4
20260508211819 53 145 3.0 4.0 0.00 0.20 0.20 68 1012.5
20260508211315 54 171 2.0 5.0 0.00 0.20 0.20 66 1012.4
20260508210813 54 179 2.0 2.0 0.00 0.20 0.20 64 1012.4
20260508210309 54 143 2.0 2.0 0.00 0.20 0.20 60 1012.4
20260508205806 54 129 0.0 1.0 0.00 0.20 0.20 58 1012.5
20260508205305 54 135 0.0 2.0 0.00 0.20 0.20 62 1012.3
20260508204759 54 113 2.0 2.0 0.00 0.20 0.20 69 1012.2
20260508204256 54 152 1.0 2.0 0.00 0.20 0.20 69 1012.3
20260508203752 54 119 2.0 2.0 0.00 0.20 0.20 68 1012.3
20260508203248 55 144 2.0 4.0 0.00 0.20 0.20 61 1012.1
20260508202744 55 189 2.0 4.0 0.00 0.20 0.20 56 1012.1
20260508202241 55 53 0.0 2.0 0.00 0.20 0.20 54 1012.2
20260508201738 56 63 0.0 3.0 0.00 0.20 0.20 55 1012.1
20260508201235 57 209 2.0 5.0 0.00 0.20 0.20 55 1012.3